User: anonymous   Login
Location: Mentone
(34.5413°N, 85.5351°W)
Time: 23:56:34
(UTC-06:00)
Language:

A-11 Canister half - Orbit

View from above orbital plane
View from above orbital plane
View from above satellite
View from above satellite

Ground track
Ground track

The orbit data is extracted from the following two-line orbital elements,

1 00053U 60009E   16044.17731165 -.00000086  00000-0  00000+0 0  9993
2 00053  47.2757 110.5170 0097101  74.8500 286.3005 12.17181324475357
Epoch (UTC): 13 February 2016 04:15:19
Eccentricity: 0.0097101
inclination: 47.2757°
perigee height: 1527 km
apogee height: 1682 km
right ascension of ascending node: 110.5170°
argument of perigee: 74.8500°
revolutions per day: 12.17181324
mean anomaly at epoch: 286.3005°
orbit number at epoch: 47535

The dashed part of the orbit path shows where the satellite is in the earth's shadow,  

DLR